STARLINK-1068, 44772

Orbit data source: Space-Track

STARLINK-1068, 44772 is a payload satellite owned by SpaceX/Seattle (US) in LEO that was launched on Mon, 11 Nov 2019 UTC via an FALCON 9 launch vehicle from the Air Force Eastern Test Range (AFETR). Payload-class satellites include a variety of spacecraft equipped with specific instruments for various scientific and technological missions. These include communications satellites like Starlink; space stations such as the ISS; scientific satellites like the Hubble; Earth observation satellites from companies like Planet Labs, Umbra, and HawkEye 360; GPS; miniature CubeSats for education and research; and military/defense satellites.

Loading next visibility...
Identifier
44772, 2019-074BM
Orbit
LEO
Country
Flag of USUS
Related business
Manufacturer
SpaceX/Seattle
Mission
Operational Commercial Communications
Bus & Motor
STARLINK, Unknown motor
Mass
260 kg wet, ~248 kg dry
Launch date (UTC)
2019-11-11 (6 years ago)
Launch vehicle
FALCON 9
Launch site
Air Force Eastern Test Range (AFETR)
Object type
Payload
Rocket body
Debris
Shape & HBR
Box + 1 Pan, 10.1 m
Radar Cross Section
13.562 m², Large (>1 m²)

Expand to show TLE details & history
Last TLE update: 11 hours ago

TLE from 11 hours ago
0 STARLINK-1068
1 44772U 19074BM  25286.57883940  .00001088  00000-0  91941-4 0  9997
2 44772  53.0508 147.0248 0001500  87.4589 272.6571 15.06399237326297
Epoch: 2025-10-13T13:53Z
TLE epoch observation values (Epoch: 2025-10-13T13:53:31.724Z)
Latitude
-0.00006°
Longitude
-83.73703°
Altitude
548.045 km
Speed
7.589 km/s
True Right ascension
09h 48m 05s
True Declination
0° 00' 00"
Sunlit
Object was in daylight at epoch
Visualization orbit readout
Latitude
Unknown
Longitude
Unknown
Altitude
Unknown
Speed
Unknown
Apparent Right ascension
Unknown
Apparent Declination
Unknown
Sunlit
N/A
Visualization observer readout
Local Sidereal Time
19:03:39
Azimuth
Unknown
Elevation
Unknown
Doppler factor
Unknown
Orbital elements
Apogee altitude
548.524 km
Perigee altitude
546.446 km
Semi-major axis
6,925.622 km
Eccentricity
0.00015
Inclination
53.0508°
RAAN
147.0248°
Arg. of periapsis
87.4589°
True anomaly
272.63993°
Mean anomaly
272.6571°
Eccentric anomaly
272.64851°
Mean motion
3.76578 °/min
Orbital period
95.6 mins
BSTAR
0.000091941
Loading maneuver chart data...
Computing Atmospheric mass density...

Documentation

Showing up to 5 results
|